Погода в Бриньковской

Россия / Краснодарский край     46°02′07″N   38°35′10″E
темп.,
°C
ветер,
м/с
пор.,
м/с
влажн.,
%
обл.,
%
осадки,
мм/ч
давл.,
гПа
погр.,
м
17 августа, ср
ср1700:00+23зюз35835 0.1 1011140
03:00+22юз35891 0.1 1010131
06:00+22юз35920 0.0 1010138
09:00+27юз45682 0.0 1010934
12:00+31зсз55476 0.0 10091721
15:00+31зсз66475 0.0 10091321
18:00+28сз45540 0.0 1009612
21:00+24зсз34700 0.0 1009119
18 августа, чт
чт1800:00+24зсз35752 0.0 1009139
03:00+23зсз33800 0.0 1009109
06:00+23ююз22810 0.0 100949
09:00+28юз22530 0.0 1009706
12:00+31сз334182 0.0 10081697
15:00+31ссз65445 0.0 1008931
18:00+29сз55485 0.0 1007446
21:00+25сз35716 0.0 1008135
19 августа, пт
пт1900:00+25ссз226824 0.1 100824
03:00+23в11698 0.1 100823
06:00+22ююв34770 0.0 1008100
09:00+28ю11540 0.0 1008566
12:00+31ссв334212 0.0 10081728
15:00+28ссз455793 0.9 1008185
18:00+21ю101594100 4.1 1009495
21:00+22в3877100 7.6 1009265
20 августа, сб
сб2000:00+22с5783100 0.5 1010245
03:00+23всв498392 0.8 1010359
06:00+21в258917 0.6 1010160
09:00+24в4572100 1.8 1011429
12:00+30в45507 0.0 10101244
15:00+31всв764455 0.0 10101639
18:00+30св2346100 0.1 100993
21:00+27св5855100 0.4 1009168
21 августа, вс
вс2100:00+22в81669100 1.1 1010500
03:00+21в9166685 1.9 1010471
06:00+20в7146574 0.1 1010475
09:00+23в7105393 0.1 1010580
12:00+29в67398 0.0 10091114
15:00+32в67348 0.0 10081393
18:00+31всв484016 0.0 10071204
21:00+24в81754100 1.9 1007504